[[{"header":{"parameterUnit":"m.s-1","parameterCategory":1,"la1":30.2991,"la2":30.254,"lo1":-89.0895,"lo2":-89.0444,"dy":0.0017,"dx":0.0017,"nx":28,"ny":28,"refTime":"2025-08-14T03:00:00:Z","depth":0,"parameterNumber":2,"parameterNumberName":"U-component_of_WINDS"},"data":[0,0,0,0,0,0,0,0,0,0,0,0,0,0,0,0,0,0,0,0,0,0,0,0,0,0,0,0,0,0,0,0,0,0,0,0,0,0,0,0,0,0,0,0,0,0,0,0,0,0,0,0,0,0,0,0,0,0,2.2538,2.2539,0,2.2612,2.2613,2.2614,2.2579,2.2577,2.2575,2.2573,2.2651,2.2655,2.2659,0,0,0,0,0,0,0,0,0,0,0,0,0,2.2365,2.2368,2.2538,2.2539,2.254,2.2612,2.2613,2.2614,2.2579,2.2577,2.2575,2.2572,2.265,2.2655,2.2659,0,0,0,0,0,0,0,0,0,0,0,0,0,2.244,2.2369,2.2538,2.2531,2.2531,2.2612,2.2613,2.2615,2.258,2.2577,2.2574,2.2571,2.2649,2.2654,2.266,2.2752,0,0,2.2677,2.268,0,0,0,0,0,0,0,0,2.2435,2.2446,2.2531,2.2531,2.2532,2.2583,2.2581,2.2661,2.258,2.2561,2.2573,2.257,2.2631,2.2638,2.2658,2.2756,2.2759,2.2678,2.2681,2.2684,2.2686,0,0,0,0,0,0,0,2.243,2.2443,2.2567,2.2532,2.2533,2.2524,2.2532,2.2596,2.2611,2.2563,2.256,2.257,2.2631,2.2653,2.266,2.2761,2.2678,2.2683,2.2686,2.2689,2.2937,2.294,0,0,0,0,0,0,2.2425,2.2439,2.2565,2.257,2.2476,2.2529,2.2538,2.257,2.2611,2.2614,2.2572,2.2568,2.2645,2.2653,2.2663,2.2774,2.2684,2.2689,2.2693,2.2934,2.2937,2.2941,0,0,0,0,0,0,2.2422,2.2437,2.2562,2.2503,2.2519,2.2535,2.2572,2.2573,2.2595,2.2617,2.262,2.2592,2.2643,2.2654,2.273,2.2776,2.2692,2.2697,2.293,2.2935,2.2939,2.2997,0,0,0,0,0,0,2.2417,2.2436,2.2471,2.2504,2.2522,2.2629,2.2574,2.2576,2.2605,2.26,2.2637,2.264,2.2641,2.2722,2.2736,2.2782,2.2702,2.2926,2.2932,2.2938,2.2991,2.3003,2.3013,0,0,0,0,0,2.2411,2.2485,2.2473,2.2489,2.2567,2.2631,2.2641,2.2641,2.2609,2.2644,2.2659,2.2639,2.2768,2.273,2.2745,2.2794,2.2923,2.293,2.2937,2.2986,2.3,2.3013,0,0,0,0,0,0,2.2458,2.2489,2.2477,2.2564,2.2595,2.2625,2.2671,2.2656,2.2697,2.2691,2.2689,2.2697,2.2776,2.2792,2.2749,2.2885,2.2841,2.2851,2.2872,2.2886,2.2897,2.2892,2.2706,0,0,0,0,0,2.2478,2.2528,2.2553,2.2627,2.2643,2.2654,2.2682,2.2679,2.2711,2.2724,2.2744,2.2776,2.2824,2.2856,2.2901,2.2992,2.3,2.3033,2.3044,2.3053,2.3063,2.3112,2.3127,2.2964,2.2964,2.2964,0,0,2.2522,2.2545,2.2576,2.2637,2.2661,2.2712,2.2666,2.2722,2.276,2.2733,2.2806,2.2821,2.2857,2.294,2.2978,2.2957,2.3109,2.3062,2.3069,2.3074,2.3121,2.3136,2.315,2.2969,2.2968,2.2967,0,0,2.2627,2.2649,2.2713,2.2738,2.2773,2.278,2.2795,2.2827,2.2836,2.2908,2.2889,2.2933,2.3016,2.3042,2.3066,2.3178,2.3162,2.3193,2.3252,2.33,2.3313,2.3324,2.3365,2.3379,2.3202,2.3202,2.3202,0,2.2676,2.2753,2.2749,2.2806,2.2834,2.281,2.2875,2.2898,2.2948,2.2967,2.2941,2.3043,2.3066,2.3155,2.3182,2.3202,2.322,2.319,2.3311,2.3322,2.3333,2.3372,2.3387,2.3206,2.3205,2.3205,2.3205,0,2.2812,2.2865,2.2913,2.296,2.2992,2.3053,2.3058,2.3091,2.3084,2.3093,2.3166,2.3192,2.3242,2.3262,2.3256,2.335,2.3336,2.3311,2.3266,2.3352,2.3389,2.3403,2.3211,2.321,2.3209,2.3208,0,0,2.2952,2.2994,2.3012,2.3033,2.3069,2.311,2.3169,2.3217,2.3246,2.3279,2.333,2.3398,2.3375,2.3402,2.3399,2.344,2.3528,2.341,2.3411,2.3432,2.3634,2.3654,2.3671,2.3516,2.3519,2.3521,2.3631,0,2.3061,2.3165,2.3162,2.3259,2.3308,2.3284,2.3336,2.3364,2.3373,2.3416,2.3425,2.3475,2.344,2.3456,2.3496,2.3509,2.3569,2.3501,2.3564,2.3566,2.3557,2.369,2.3712,2.3814,2.3645,2.3647,2.3649,0,2.3202,2.324,2.3342,2.337,2.339,2.3437,2.348,2.352,2.3551,2.3555,2.3584,2.3573,2.3633,2.3585,2.3668,2.3621,2.3646,2.3656,2.366,2.3668,2.3614,2.3702,2.3847,2.3863,2.3671,2.367,2.3668,0,2.3295,2.3371,2.3442,2.346,2.3494,2.3528,2.3544,2.3571,2.36,2.3637,2.3655,2.3699,2.3723,2.3757,2.3758,2.3723,2.3842,2.3794,2.3847,2.3847,2.3875,2.3874,2.4027,2.3889,2.3888,2.3888,2.3888,0,2.3418,2.3482,2.3484,2.3528,2.3598,2.3592,2.3662,2.3675,2.3699,2.3745,2.3726,2.3769,2.3767,2.3811,2.3812,2.388,2.3891,2.3896,2.3896,2.3899,2.3898,2.3917,2.3911,2.3892,2.3891,2.389,2.389,0,2.3536,2.3539,2.3615,2.364,2.3648,2.3699,2.3721,2.3762,2.3768,2.3826,2.3839,2.3849,2.39,2.3903,2.3961,2.3962,2.4045,2.4036,2.4035,2.4034,2.4088,2.4084,2.426,2.4284,2.4128,2.4129,2.4131,0,2.3615,2.3663,2.3693,2.3722,2.3739,2.3786,2.3814,2.381,2.3841,2.3878,2.3915,2.3963,2.4001,2.4083,2.4095,2.414,2.4133,2.4191,2.414,2.4141,2.4135,2.4133,2.4138,2.4203,2.4204,2.4206,2.4207,0,2.3755,2.3754,2.3796,2.3838,2.3872,2.3905,2.3936,2.396,2.3959,2.3994,2.4045,2.4075,2.4133,2.4181,2.4224,2.424,2.4224,2.4222,2.4237,2.4242,2.424,2.4243,2.4065,2.4219,2.4218,2.4217,2.4216,2.4216,2.3857,2.3899,2.3926,2.3972,2.3994,2.4023,2.4063,2.4073,2.4115,2.4162,2.4157,2.4213,2.4241,2.4296,2.4316,2.4359,2.434,2.4361,2.4367,2.4373,2.4379,2.4231,2.4367,2.4367,2.4366,2.4366,2.4366,0,2.3998,2.4014,2.4056,2.4099,2.4135,2.4114,2.4147,2.4179,2.4229,2.4255,2.4293,2.4351,2.4397,2.4412,2.4457,2.4489,2.4482,2.4501,2.45,2.4504,2.4394,2.4377,2.4505,2.4505,2.4505,2.4505,2.4505,2.4505,2.4076,2.4145,2.4147,2.4226,2.4241,2.4296,2.4316,2.4342,2.4363,2.4428,2.4466,2.4475,2.4497,2.4543,2.4584,2.4587,2.4605,2.4627,2.4628,2.4525,2.4511,2.4498,2.4482,2.4631,2.4631,2.4734,2.4735,2.4736]},{"header":{"parameterUnit":"m.s-1","parameterCategory":1,"la1":30.2991,"la2":30.254,"lo1":-89.0895,"lo2":-89.0444,"dy":0.0017,"dx":0.0017,"nx":28,"ny":28,"refTime":"2025-08-14T03:00:00:Z","depth":0,"parameterNumber":3,"parameterNumberName":"V-component_of_WINDS"},"data":[0,0,0,0,0,0,0,0,0,0,0,0,0,0,0,0,0,0,0,0,0,0,0,0,0,0,0,0,0,0,0,0,0,0,0,0,0,0,0,0,0,0,0,0,0,0,0,0,0,0,0,0,0,0,0,0,0,0,3.987,3.9872,0,4.0037,4.0039,4.0041,4.0037,4.0035,4.0032,4.003,4.0195,4.0201,4.0208,0,0,0,0,0,0,0,0,0,0,0,0,0,3.954,3.9547,3.987,3.9872,3.9874,4.0037,4.0039,4.0041,4.0037,4.0034,4.0032,4.0029,4.0193,4.02,4.0208,0,0,0,0,0,0,0,0,0,0,0,0,0,3.9693,3.9548,3.9869,3.9892,3.9895,4.0036,4.0039,4.0042,4.0038,4.0034,4.0031,4.0028,4.019,4.02,4.0209,4.0337,0,0,4.0239,4.0243,0,0,0,0,0,0,0,0,3.9684,3.9705,3.9886,3.989,3.9895,4.0013,3.9983,4.014,4.0039,3.9984,4.003,4.0026,4.0137,4.015,4.0189,4.0344,4.0352,4.024,4.0246,4.025,4.0253,0,0,0,0,0,0,0,3.9674,3.9698,3.9936,3.9889,3.9894,3.9891,3.9909,4.0013,4.0077,3.9988,3.9988,4.0008,4.0138,4.018,4.0193,4.0354,4.024,4.0248,4.0254,4.0258,4.062,4.0624,0,0,0,0,0,0,3.9659,3.9689,3.993,3.9941,3.9779,3.99,3.992,3.9978,4.0076,4.0087,4.0011,4.0008,4.0165,4.0182,4.0199,4.0354,4.025,4.0259,4.0265,4.0617,4.0621,4.0625,0,0,0,0,0,0,3.9652,3.9681,3.9923,3.9815,3.9846,3.9909,3.9974,3.9983,4.0025,4.0093,4.0104,4.0042,4.0163,4.0185,4.0303,4.0359,4.0263,4.0272,4.0612,4.0618,4.0623,4.0665,0,0,0,0,0,0,3.9643,3.9678,3.9729,3.9816,3.9852,4.0027,3.9978,3.9989,4.0042,4.0039,4.0125,4.0136,4.0162,4.0288,4.0312,4.0371,4.028,4.0607,4.0615,4.0622,4.0659,4.0671,4.0682,0,0,0,0,0,3.9631,3.9733,3.9732,3.9761,3.9917,4.003,4.005,4.008,4.0047,4.0097,4.0141,4.0133,4.0349,4.03,4.0327,4.039,4.0604,4.0613,4.0621,4.0653,4.0669,4.0682,0,0,0,0,0,0,3.9649,3.9745,3.9745,3.9878,3.9946,4.0029,4.0094,4.0095,4.0172,4.0166,4.0197,4.0216,4.0334,4.0373,4.0317,4.0517,4.0472,4.0486,4.0487,4.0503,4.0514,4.0502,4.0288,0,0,0,0,0,3.9669,3.9755,3.9833,3.9944,3.9978,4.003,4.0081,4.0098,4.0169,4.0197,4.0249,4.0316,4.0399,4.0453,4.0533,4.0664,4.0682,4.072,4.0732,4.0741,4.0753,4.0824,4.0842,4.0653,4.0653,4.0653,0,0,3.971,3.9773,3.9825,3.9949,4.0004,4.009,4.0054,4.0148,4.0212,4.021,4.0325,4.0366,4.0442,4.0567,4.0625,4.0604,4.0809,4.0752,4.0759,4.0766,4.0835,4.0852,4.0868,4.0659,4.0658,4.0657,0,0,3.983,3.9887,3.9984,4.004,4.0124,4.0158,4.0182,4.0265,4.0293,4.0409,4.0409,4.0484,4.0627,4.0681,4.0727,4.0867,4.0862,4.0892,4.0952,4.1021,4.1036,4.1049,4.1098,4.1115,4.0903,4.0903,4.0904,0,3.9869,4.0003,4.0034,4.0128,4.0182,4.0186,4.0284,4.0336,4.0441,4.0477,4.0452,4.0631,4.0683,4.082,4.0854,4.0892,4.0918,4.0882,4.1032,4.1045,4.1058,4.1105,4.1123,4.0906,4.0906,4.0906,4.0906,0,4.0047,4.0139,4.0207,4.0311,4.0372,4.0467,4.0511,4.0569,4.058,4.0616,4.0732,4.0795,4.0888,4.0921,4.0932,4.106,4.1044,4.1025,4.098,4.1079,4.1123,4.1141,4.0911,4.091,4.0909,4.0908,0,0,4.0182,4.0302,4.0327,4.0374,4.0466,4.0537,4.0631,4.0724,4.0772,4.0844,4.0923,4.1043,4.1026,4.1079,4.1096,4.1156,4.1261,4.113,4.1132,4.1152,4.1404,4.1417,4.1437,4.1259,4.1262,4.1265,4.1397,0,4.0311,4.0482,4.0513,4.0661,4.0745,4.075,4.0832,4.0897,4.0932,4.1007,4.1045,4.113,4.1102,4.1134,4.1194,4.1236,4.1312,4.1227,4.133,4.1334,4.1311,4.1461,4.1476,4.1597,4.1415,4.1418,4.142,0,4.0484,4.0562,4.072,4.0801,4.0837,4.0911,4.0998,4.107,4.1142,4.1163,4.1222,4.1232,4.1328,4.1279,4.1411,4.1352,4.1396,4.1422,4.1428,4.1438,4.1383,4.1475,4.1637,4.1655,4.1448,4.1445,4.1443,0,4.0566,4.0711,4.0823,4.0863,4.0961,4.1012,4.1055,4.1124,4.1177,4.1252,4.1287,4.1371,4.1417,4.148,4.1512,4.1474,4.1641,4.1594,4.1659,4.1659,4.1694,4.1692,4.1865,4.1723,4.1723,4.1723,4.1722,0,4.0706,4.0802,4.0862,4.0931,4.1037,4.1071,4.1174,4.1215,4.1277,4.1353,4.1361,4.1431,4.1469,4.1544,4.1569,4.1673,4.1693,4.1712,4.1717,4.1711,4.1709,4.174,4.1732,4.1728,4.1727,4.1726,4.1725,0,4.0815,4.086,4.0983,4.1066,4.1088,4.1163,4.1233,4.1299,4.1334,4.143,4.1454,4.1508,4.1597,4.1635,4.1743,4.176,4.1879,4.1878,4.1856,4.1857,4.192,4.1913,4.212,4.2148,4.1988,4.1989,4.199,0,4.0902,4.0976,4.1067,4.112,4.1164,4.1248,4.1303,4.1338,4.1394,4.1482,4.1537,4.1627,4.17,4.1841,4.1889,4.1971,4.1972,4.2039,4.1984,4.1976,4.1972,4.1967,4.1974,4.2048,4.205,4.2051,4.2052,0,4.105,4.1068,4.1149,4.1237,4.1303,4.1373,4.1441,4.1483,4.1528,4.1591,4.1683,4.174,4.1851,4.1939,4.2025,4.2065,4.2066,4.2069,4.2088,4.2083,4.2066,4.2075,4.1882,4.2064,4.2063,4.2062,4.2061,4.2061,4.115,4.1216,4.1291,4.138,4.1435,4.1499,4.1565,4.161,4.1688,4.1783,4.1798,4.1896,4.1965,4.208,4.2124,4.2199,4.2183,4.2211,4.2218,4.2224,4.2228,4.2055,4.2215,4.2215,4.2214,4.2214,4.2214,0,4.1298,4.1347,4.1428,4.1525,4.1594,4.1591,4.1667,4.1724,4.1811,4.1876,4.1949,4.2054,4.2139,4.2194,4.2279,4.2329,4.2331,4.235,4.2346,4.2356,4.2238,4.2213,4.2347,4.2347,4.2347,4.2347,4.2347,4.2347,4.1383,4.1495,4.1522,4.166,4.1707,4.1805,4.1848,4.1906,4.1959,4.2077,4.2149,4.2184,4.2245,4.2335,4.2412,4.2426,4.2456,4.2476,4.2489,4.2378,4.2364,4.2351,4.2327,4.2483,4.2483,4.26,4.2601,4.2601]}]]